Wind_Speed
7 8 8 9 9 9 9 9 10 10 10 10 10 10 10 11 11 11 12 12 12 12 13 13 14 14 13 13 13 14 15 15 17 18 18 18 18 18 17 16 15 16 17 18 19 18 18 18 18 18 17 16 15 15 14 13 13 12 11 10 9 8 8 8 9 9 8 7 7 6 6 6 5 4 2 1 1 1 1 1 2 2 3 4 3
8 7 8 8 9 8 9 9 10 10 11 11 11 11 11 11 12 12 12 13 13 13 14 14 14 15 15 14 13 14 15 17 17 18 18 18 19 19 19 18 17 17 17 18 19 19 19 19 20 20 20 19 17 16 16 15 15 14 13 12 10 9 9 9 9 10 10 9 8 8 7 7 6 5 3 2 1 1 1 1 1 2 3 4 4
7 6 7 8 8 8 8 9 10 10 10 11 11 11 12 12 12 13 14 14 14 14 15 16 16 16 16 16 15 15 16 17 18 19 19 19 19 20 21 20 19 18 18 18 18 18 19 20 20 20 22 22 20 19 18 17 16 16 15 14 13 11 10 9 10 11 11 10 10 9 8 8 8 6 5 3 2 1 1 1 1 1 3 4 5
6 5 6 7 7 7 8 9 10 10 10 11 11 12 12 12 13 13 14 15 15 15 15 16 16 16 16 16 16 17 16 17 19 19 19 19 20 20 21 22 22 21 21 20 19 18 19 20 21 20 20 21 21 21 19 18 18 18 17 16 15 14 12 11 10 11 12 12 11 10 10 9 9 7 6 4 3 2 1 0 0 1 2 3 4
6 4 4 5 6 6 7 8 9 10 11 11 11 12 13 14 14 15 15 16 16 16 17 17 16 17 17 17 17 17 17 18 19 19 20 20 20 20 21 22 23 23 23 22 21 20 19 20 21 21 20 20 22 22 21 20 19 19 19 19 18 17 15 13 12 12 12 12 12 12 11 11 10 9 7 5 5 3 2 1 1 1 2 3 4
5 4 4 5 5 6 7 8 9 10 10 11 12 12 14 15 15 16 16 17 17 17 17 18 18 17 18 18 18 18 18 18 19 19 20 20 21 21 21 22 23 24 24 24 24 23 21 20 21 22 22 22 23 23 23 23 21 21 20 20 20 19 18 16 14 13 13 13 13 13 13 12 12 11 9 7 6 5 4 3 2 2 2 3 4
3 3 4 5 6 7 8 8 9 10 10 11 12 13 14 14 15 16 17 18 18 18 18 18 18 18 18 18 19 18 18 18 19 19 20 21 22 22 22 22 23 24 24 25 25 25 24 23 22 22 23 24 24 24 25 24 23 22 22 21 21 21 20 19 17 15 14 14 14 14 14 14 13 12 11 9 7 6 5 4 3 3 3 4 4
4 4 5 6 6 7 8 9 10 10 10 11 12 13 14 15 15 16 17 18 18 19 19 19 19 19 19 19 20 20 19 19 18 19 19 21 22 23 23 23 24 24 25 25 26 26 25 24 23 23 24 25 26 26 26 26 25 24 23 23 22 22 22 21 20 18 17 15 15 15 15 15 14 14 13 11 9 8 7 6 5 4 4 5 5
6 6 6 7 8 8 9 10 11 12 12 12 13 14 15 16 16 17 18 18 18 19 20 20 21 21 21 20 21 21 21 20 19 19 19 20 21 23 23 24 24 25 25 26 27 27 26 25 25 25 24 25 27 28 28 28 27 26 25 25 24 24 23 23 23 21 19 18 17 16 16 16 16 15 14 13 11 9 8 7 7 6 5 5 6
8 8 8 8 9 10 10 11 12 13 14 14 15 15 16 17 18 18 19 19 19 20 20 21 22 22 22 22 22 22 22 21 20 20 20 19 20 21 23 24 25 26 26 26 27 27 27 26 26 27 26 25 26 27 29 29 28 28 28 28 27 26 25 24 24 23 22 21 20 19 18 17 17 16 16 15 13 12 10 9 8 7 7 6 6
9 10 10 10 11 11 12 13 14 14 15 15 16 16 17 18 19 19 20 20 20 21 21 22 22 23 23 23 23 23 23 23 22 22 21 21 19 19 20 23 25 26 27 27 27 28 28 28 27 28 28 28 26 26 29 30 30 30 30 30 30 29 28 26 25 25 24 23 22 21 20 19 18 18 17 16 15 14 12 11 10 9 8 8 7
11 11 12 12 12 12 13 14 14 15 15 16 16 17 17 18 19 20 21 21 21 21 22 23 23 23 24 25 24 24 24 24 23 23 23 23 22 20 19 20 23 25 27 28 28 29 29 29 29 29 30 30 29 28 28 29 31 32 32 32 32 31 30 29 27 26 25 25 24 23 23 22 21 20 19 18 17 16 14 13 12 11 10 10 9
11 11 12 13 13 13 14 14 15 15 16 16 16 17 17 18 19 20 21 22 21 21 22 23 24 25 25 26 25 25 25 25 25 24 24 24 24 23 21 20 20 22 24 27 28 29 30 30 30 30 31 32 32 31 29 29 31 33 34 34 33 33 32 32 31 29 27 27 26 25 25 24 23 22 21 20 19 18 16 15 14 14 13 12 11
11 11 12 13 14 14 15 15 15 16 16 17 17 17 17 18 19 20 21 22 22 22 23 24 24 25 26 27 27 26 26 26 26 26 25 25 25 25 24 22 21 20 21 25 27 29 29 31 32 32 32 32 34 34 33 32 31 32 34 35 34 34 34 35 34 32 31 30 28 28 27 26 26 25 23 22 21 20 19 17 16 16 15 14 13
12 12 13 13 14 14 15 15 16 16 17 18 18 19 19 20 21 22 22 23 23 23 24 24 25 26 27 28 28 28 28 27 27 27 26 26 26 26 26 25 24 22 22 23 26 28 29 31 33 34 34 33 34 35 35 35 33 32 32 34 36 35 35 36 36 34 33 32 31 30 29 28 28 27 26 25 23 22 21 19 18 18 17 16 15
14 14 15 15 15 16 17 17 18 18 19 20 20 21 21 22 22 23 23 24 24 24 25 25 26 26 27 28 28 30 29 28 28 28 27 27 27 26 26 26 26 25 25 25 26 28 29 31 32 34 35 35 34 35 36 37 36 35 33 33 35 37 37 36 36 35 35 34 33 32 31 30 29 29 28 27 26 24 23 21 20 19 19 18 18
16 17 17 18 18 19 19 20 20 20 21 21 21 22 22 23 23 24 24 25 26 26 26 26 27 27 28 28 28 29 29 29 29 29 29 28 28 27 27 27 27 27 27 27 27 28 29 31 32 34 36 37 36 36 37 38 39 38 36 34 35 37 39 39 38 37 37 36 35 34 33 32 31 30 30 29 28 27 25 24 23 21 21 20 20
18 18 19 19 20 20 21 21 21 22 22 22 22 23 23 24 25 25 26 27 28 28 28 28 28 28 29 29 28 28 29 29 29 29 30 31 31 30 29 28 28 28 28 28 29 30 30 31 32 34 36 38 39 38 38 39 40 40 40 38 38 38 39 40 40 39 38 38 38 36 34 34 33 32 31 31 30 29 28 27 25 24 23 22 22
19 20 20 21 21 21 22 22 23 23 23 23 24 24 25 26 27 28 28 29 30 30 30 29 29 29 30 30 29 29 29 29 28 28 29 31 32 32 32 31 30 30 30 30 31 31 32 32 33 34 36 38 40 40 39 39 40 41 41 41 41 40 39 39 40 41 41 40 40 39 37 36 35 34 33 33 32 31 30 29 28 27 25 24 24
21 21 22 23 23 23 24 24 24 24 25 25 25 26 26 27 28 29 30 31 31 31 31 31 31 30 31 30 30 30 30 29 29 28 28 30 32 33 34 33 33 32 31 32 33 33 34 34 34 35 36 38 40 41 41 41 41 41 42 43 44 42 41 39 39 41 42 42 42 41 40 39 37 36 36 35 34 34 32 31 30 30 28 27 26
23 24 25 25 25 26 26 26 26 26 26 26 26 27 27 28 29 30 31 32 32 32 31 31 31 31 31 31 31 31 31 31 30 30 30 30 31 33 34 35 36 35 34 33 34 35 35 35 35 36 37 38 40 41 42 42 42 42 42 43 45 45 44 42 40 40 42 43 44 44 42 41 40 39 38 38 37 36 35 34 32 31 30 29 28
26 27 27 27 27 27 27 27 27 27 26 26 26 27 27 28 29 30 32 33 33 33 32 32 32 32 32 32 32 32 32 32 32 32 33 32 32 33 34 34 36 37 37 36 35 36 36 36 36 37 37 39 40 41 42 43 43 43 43 43 45 47 46 45 43 42 42 43 44 45 45 43 42 41 40 40 39 38 37 36 34 33 32 31 30
27 28 28 28 28 28 28 27 27 27 26 26 26 27 28 28 30 31 32 34 34 34 34 33 33 32 33 33 33 33 33 34 34 35 35 35 34 34 34 34 35 35 36 37 37 37 38 37 36 37 38 39 40 41 41 43 44 44 44 44 45 46 47 48 46 44 43 43 44 45 46 45 43 42 42 42 41 40 39 38 37 35 34 33 32
28 29 29 29 29 29 28 27 27 26 26 26 27 27 28 29 30 32 33 35 36 36 35 34 34 33 33 33 33 33 34 35 36 37 37 36 36 35 35 35 35 35 35 35 37 39 39 38 37 37 38 38 40 41 42 42 43 44 45 45 46 46 47 47 47 46 45 44 44 45 46 47 45 44 43 43 42 41 41 40 39 38 36 35 34
27 28 29 29 29 29 27 27 27 27 26 26 27 28 29 30 31 32 34 36 36 36 36 35 34 34 33 33 33 34 35 36 36 37 37 37 36 35 35 35 35 35 35 35 36 38 39 39 37 37 38 39 39 41 42 42 43 44 46 47 47 47 48 47 47 47 47 46 45 46 46 47 47 47 46 45 44 43 43 42 41 39 38 37 36
27 28 29 29 29 28 27 27 27 26 26 26 28 29 30 31 32 33 35 36 36 36 35 35 34 34 34 34 34 35 35 36 36 37 38 38 37 36 35 34 33 33 33 34 35 36 38 39 38 37 38 40 39 40 42 43 43 44 46 47 48 48 49 49 48 48 48 47 47 47 47 47 48 49 48 47 45 44 44 43 42 41 40 39 38
26 28 29 29 29 28 27 27 27 26 26 27 28 30 31 32 33 34 36 36 36 35 35 35 34 34 34 34 34 35 35 36 37 37 38 38 38 37 35 33 31 30 31 33 34 35 36 38 39 38 39 40 41 41 41 43 44 44 45 47 48 49 49 49 49 49 49 49 49 48 48 48 49 49 49 49 47 45 46 45 44 43 42 41 40
27 28 29 29 28 27 27 27 27 27 27 28 30 31 31 32 33 35 36 36 36 35 35 34 34 34 35 35 35 35 36 36 37 38 38 38 38 38 37 33 30 28 28 30 33 35 36 37 38 39 39 40 42 43 43 43 44 45 46 46 47 49 50 50 50 51 50 50 50 50 49 49 48 48 49 50 48 48 49 48 47 45 43 42 41
27 29 29 28 28 28 28 28 27 27 28 30 31 31 32 33 34 35 36 36 36 35 34 34 33 34 35 36 36 36 36 36 37 38 38 38 38 38 37 35 31 29 27 27 30 34 35 36 37 38 39 40 42 44 45 44 45 45 46 47 47 48 51 52 52 51 51 51 50 50 50 50 49 48 49 49 49 50 51 50 49 47 45 44 43
27 28 29 29 29 29 29 28 28 29 30 30 31 32 32 33 34 35 36 37 38 37 35 34 33 34 36 37 37 37 36 37 38 38 38 38 38 38 37 35 33 31 29 27 27 31 33 34 35 36 37 38 40 42 45 46 46 46 46 47 47 48 50 52 53 52 52 52 52 51 51 52 51 49 49 49 49 50 51 51 50 49 47 46 45
27 28 28 29 29 29 29 29 29 30 31 31 31 32 33 34 35 36 37 38 38 37 35 34 34 35 37 38 38 38 37 37 38 38 38 38 38 38 37 35 33 32 31 28 26 27 31 32 33 33 34 35 38 40 43 46 47 47 47 47 47 48 49 51 53 53 53 53 53 53 52 53 53 51 50 50 50 50 51 52 52 51 49 48 47
28 29 29 29 30 30 30 30 30 31 31 31 32 33 34 35 37 38 38 38 37 36 35 35 35 36 37 38 39 38 38 38 39 39 38 38 38 38 37 35 34 33 33 30 27 26 28 30 31 31 32 32 35 38 40 43 46 48 48 48 48 48 49 50 52 53 53 53 54 54 54 54 54 53 52 51 51 51 51 51 52 52 51 50 49
30 30 29 30 31 31 31 31 32 31 31 32 33 34 35 36 38 38 38 37 37 36 36 36 36 36 36 37 38 38 37 38 39 39 38 38 38 38 36 35 34 34 34 32 29 25 25 27 29 30 32 32 33 36 38 39 43 47 49 50 49 48 48 50 52 53 54 54 54 54 55 56 56 55 53 52 51 51 51 51 51 51 52 51 51
31 30 30 30 31 32 32 33 33 32 33 33 34 35 36 37 38 39 38 38 37 37 36 37 36 36 36 37 38 38 37 37 38 38 38 38 38 38 37 35 34 35 35 33 31 27 24 25 28 30 32 33 32 33 35 37 39 44 47 50 51 50 49 49 51 53 54 55 55 56 56 56 57 56 55 53 52 52 52 51 50 50 51 51 51
31 30 31 31 32 33 33 33 33 33 33 34 35 36 37 38 38 38 38 38 38 37 37 37 37 36 36 37 38 38 37 37 37 37 37 37 38 38 37 36 35 35 35 34 32 29 26 24 27 29 31 33 33 33 34 35 37 40 44 48 52 52 51 50 50 52 54 55 56 57 57 57 58 58 57 55 53 53 53 52 51 50 50 50 51
32 32 32 32 33 34 33 33 33 33 34 35 36 37 37 38 39 39 39 39 38 38 38 37 37 37 37 38 38 37 37 36 37 37 37 37 38 38 38 38 37 35 35 35 33 31 29 27 27 29 31 32 33 34 35 35 36 38 41 44 50 53 53 51 50 50 53 55 56 57 58 58 58 59 58 56 54 54 53 53 52 50 49 49 49
33 33 33 33 34 34 34 34 33 33 35 36 36 37 38 38 39 40 40 40 39 39 38 37 37 37 38 38 37 36 36 35 36 36 36 37 38 40 40 40 38 37 36 35 34 32 31 31 30 30 31 32 33 35 36 35 35 37 39 41 46 51 53 54 52 51 52 54 55 57 58 59 59 59 60 58 56 54 54 54 53 51 49 48 48
34 33 34 34 34 35 35 34 34 35 36 36 36 37 38 39 40 41 41 41 41 39 38 37 37 38 38 37 36 35 35 35 36 36 37 38 40 41 41 40 39 38 37 35 34 33 32 32 32 31 31 33 34 36 37 37 37 37 38 39 43 47 51 54 54 53 52 53 55 56 58 59 59 59 60 60 58 56 55 55 54 52 50 49 47
33 34 34 35 35 36 36 35 35 35 36 37 39 41 42 42 41 41 41 41 40 39 37 36 37 37 37 36 35 35 36 36 36 37 37 39 41 42 42 40 39 39 37 36 34 34 33 33 33 33 33 33 35 36 37 38 37 38 39 38 40 45 49 51 54 55 54 53 54 56 57 59 60 59 59 60 59 58 56 56 55 53 52 50 48
34 35 35 35 36 36 37 36 36 37 38 39 40 40 39 38 38 39 40 39 38 37 36 35 36 36 35 34 34 35 37 37 37 38 39 40 42 42 42 41 40 39 38 36 35 34 34 33 33 34 35 35 36 36 37 37 36 37 39 38 38 42 47 49 52 55 56 55 54 55 57 58 60 59 58 59 59 58 57 56 55 54 52 51 50
35 35 36 36 36 37 37 38 38 38 37 38 38 38 37 37 39 42 40 38 35 34 34 34 34 33 33 34 36 37 37 38 39 39 40 42 43 43 42 41 41 39 38 37 36 35 34 34 34 36 36 36 37 36 36 36 36 36 38 39 39 41 45 48 50 53 56 57 55 55 56 58 59 60 59 58 58 58 58 57 56 55 53 53 52
35 36 36 36 36 37 37 37 37 38 40 40 40 41 40 39 42 44 40 36 33 31 32 33 32 32 33 35 38 39 39 39 40 41 42 43 44 44 43 42 41 39 38 37 37 36 34 34 35 37 37 38 38 37 35 35 36 36 37 39 40 41 44 47 49 52 56 57 57 56 56 58 59 60 60 58 58 59 59 58 57 55 54 54 53
35 36 37 38 38 38 36 35 35 39 43 43 42 42 39 36 39 43 42 37 32 30 31 32 31 32 33 36 39 40 40 40 41 42 43 44 44 44 44 42 40 39 38 38 38 37 35 35 36 38 39 38 38 38 37 36 36 36 36 37 40 42 43 45 48 51 55 57 58 57 57 58 59 59 59 59 58 59 60 59 57 56 55 55 54
37 38 39 39 40 38 35 33 34 38 43 43 42 39 35 34 38 43 44 40 34 30 30 30 30 31 33 36 39 41 42 42 42 43 44 44 44 44 44 42 39 39 39 39 38 37 36 36 37 39 40 39 38 39 39 38 37 36 35 35 38 41 43 45 47 50 54 57 58 58 57 58 59 59 59 58 58 58 60 59 58 57 55 55 55
38 40 40 41 41 39 36 35 36 39 41 41 40 37 36 39 42 43 42 40 35 30 29 29 29 31 33 35 38 41 42 42 42 43 44 44 44 45 44 42 39 38 39 39 39 37 37 37 37 39 40 40 39 40 41 41 39 38 35 33 35 40 43 45 47 49 53 56 57 57 57 57 59 60 58 58 58 58 59 59 59 58 56 55 55
40 41 41 42 41 40 39 39 40 40 40 40 40 39 40 43 44 42 40 37 33 29 29 30 30 32 35 36 38 40 42 42 43 44 44 43 43 44 44 41 39 39 39 40 39 37 37 38 38 38 40 40 40 41 43 43 42 41 37 30 31 38 42 44 47 49 52 55 56 56 57 56 58 60 58 57 58 58 58 59 59 59 57 56 56
41 42 42 42 42 42 42 41 41 42 43 43 43 43 44 44 44 43 39 34 32 32 35 36 35 35 38 40 39 39 41 43 44 45 44 43 43 43 43 41 38 38 39 39 38 37 37 38 38 39 39 40 41 42 44 45 44 43 39 30 27 35 42 44 46 48 51 55 56 56 55 56 58 60 58 57 58 58 58 58 59 59 58 57 57
42 42 43 43 43 44 43 42 42 45 47 47 46 46 47 47 46 45 39 34 34 37 41 42 40 39 43 44 41 41 42 44 46 46 44 43 42 42 42 40 38 38 39 39 38 37 38 38 38 39 40 40 41 42 44 46 46 45 40 31 25 32 40 43 46 47 50 54 56 55 54 55 58 59 58 57 58 58 58 58 59 59 58 57 57
42 42 43 43 44 44 43 43 45 47 50 51 50 49 49 50 49 47 43 38 39 41 44 44 43 45 48 45 41 41 43 45 47 46 44 42 42 42 41 39 37 37 37 37 37 37 38 39 39 39 40 40 41 42 44 46 48 47 40 31 25 28 37 43 46 47 49 53 56 56 55 54 56 58 58 58 59 58 58 58 58 59 58 57 56
42 42 42 42 42 42 43 45 47 49 52 53 54 52 51 51 52 50 47 44 43 45 45 44 45 47 47 43 40 41 42 46 47 45 42 41 41 42 41 38 36 35 36 36 37 37 38 39 39 40 40 40 40 42 44 46 48 48 43 35 28 27 33 42 46 47 48 51 54 56 56 54 55 57 57 58 59 58 57 58 59 59 58 57 56
41 41 42 42 41 42 43 46 49 51 53 54 54 53 52 52 52 52 50 49 49 47 46 45 46 46 43 40 39 39 42 46 46 43 40 40 41 41 40 37 35 34 34 35 36 37 37 37 38 39 39 39 40 41 44 46 47 48 46 40 33 29 31 39 45 46 47 50 54 56 56 54 55 56 57 58 59 58 57 58 59 59 58 57 56
Wind_Direction
20 22 22 24 25 26 27 27 28 28 25 23 20 16 12 8 6 2 357 353 346 338 329 323 318 313 308 305 302 298 295 291 287 283 278 273 267 264 262 259 259 256 250 247 247 246 245 243 240 238 239 237 234 233 234 235 234 232 235 241 241 234 225 225 232 234 229 220 211 208 211 213 211 202 197 218 281 325 344 34 72 95 113 127 137
29 33 34 32 30 29 28 27 27 26 22 19 18 16 13 9 8 6 2 357 352 344 336 330 325 320 314 308 300 294 293 292 291 288 282 275 269 264 261 259 260 259 255 249 246 246 245 244 240 236 236 239 236 233 232 233 234 233 232 235 241 239 231 226 229 235 234 228 221 215 212 215 218 206 196 203 232 297 331 3 56 94 120 128 134
29 39 39 35 30 26 24 23 23 21 18 14 12 11 9 8 7 5 3 1 358 352 344 337 331 325 319 314 306 298 293 290 290 289 286 278 271 266 261 259 257 255 254 252 250 247 245 244 242 236 233 234 236 233 231 231 233 233 232 231 235 239 238 230 227 232 237 234 229 224 217 216 222 216 200 198 213 242 293 340 41 90 120 128 135
31 34 27 25 22 17 16 17 16 14 13 10 6 4 2 2 3 2 1 360 360 359 353 347 338 329 322 317 310 304 299 292 287 285 284 279 273 268 263 259 257 253 253 254 254 252 248 245 243 240 236 234 236 235 232 231 232 233 232 231 231 234 238 236 230 231 236 237 235 232 226 220 223 224 210 201 206 216 225 239 68 99 120 129 136
39 35 19 15 11 8 8 8 7 6 6 4 360 357 355 355 356 356 355 354 356 358 356 354 349 339 331 323 315 309 303 296 291 285 280 276 274 271 266 261 257 254 253 253 252 252 251 248 244 241 238 236 237 237 234 232 231 233 234 232 231 231 233 236 234 232 235 238 239 238 235 228 225 227 223 211 206 208 212 205 167 136 134 134 139
31 23 10 1 356 354 355 357 358 358 358 356 353 350 350 350 349 348 348 348 349 352 352 352 352 349 342 334 326 318 310 302 296 290 283 277 272 270 267 264 259 255 253 252 251 251 251 250 247 243 239 235 234 236 235 233 231 232 234 234 233 232 232 234 235 234 235 238 240 241 241 237 232 230 231 225 216 211 210 203 182 163 155 152 150
12 1 348 341 339 339 341 344 345 346 347 346 344 343 344 344 344 343 342 342 344 345 345 345 347 348 346 342 337 330 322 314 306 299 291 282 274 268 266 264 262 258 255 253 252 250 249 248 248 246 242 236 234 235 235 236 233 231 234 235 235 234 233 233 234 234 235 237 240 241 243 242 240 236 235 234 228 219 214 210 195 178 170 166 163
343 337 329 324 325 329 331 331 331 332 333 335 336 336 336 337 338 337 336 338 340 340 340 339 340 341 341 341 341 339 335 327 318 309 300 290 281 273 268 265 263 261 257 254 253 251 249 248 248 248 244 239 236 235 235 235 235 232 232 235 236 236 235 235 234 233 234 236 238 241 243 244 243 242 240 238 235 228 222 217 208 195 182 174 171
332 327 321 318 320 323 323 322 322 323 326 328 330 330 329 329 331 331 331 334 337 338 337 336 335 335 335 336 337 338 338 335 327 318 309 300 291 282 275 270 265 262 258 255 254 253 251 249 248 249 247 242 237 235 235 234 234 233 231 232 234 235 235 235 235 234 234 234 236 238 241 243 244 243 242 241 240 235 229 224 217 210 197 185 179
325 322 320 319 320 323 322 319 319 321 323 325 325 325 323 324 325 326 327 330 333 335 334 333 333 332 331 332 333 334 335 336 333 326 318 310 301 291 282 275 270 265 260 257 254 253 252 250 249 249 249 245 241 238 237 236 234 234 233 231 231 232 234 234 235 235 234 234 235 235 237 240 243 242 241 241 241 239 234 229 224 219 210 200 190
323 322 321 322 323 325 323 320 319 321 322 322 322 321 320 320 320 322 323 326 330 331 331 330 331 330 329 329 330 331 331 332 333 330 325 319 313 302 290 280 274 269 264 260 257 253 251 250 250 250 249 248 246 244 241 238 236 235 235 233 231 230 231 232 234 235 235 234 234 235 235 236 239 240 240 239 238 239 237 232 227 223 217 210 203
321 320 320 322 323 323 322 321 321 321 321 320 319 318 318 317 318 319 320 323 326 327 327 327 329 329 328 328 329 329 329 329 329 329 327 325 322 314 303 292 281 274 268 263 260 257 254 251 249 249 249 250 249 246 243 240 237 235 235 234 233 231 231 231 231 233 235 234 233 234 235 235 235 236 238 237 236 235 236 234 229 225 221 215 210
320 318 318 319 320 321 321 322 321 320 320 318 318 317 316 315 316 317 318 320 323 324 325 325 327 327 327 327 327 327 327 327 327 327 327 326 325 321 314 304 293 281 272 265 261 260 258 256 252 249 249 250 249 247 244 241 237 236 236 235 234 231 230 230 230 229 231 234 233 233 234 235 235 234 235 236 235 234 233 233 230 226 223 219 215
320 318 317 318 320 320 320 320 320 319 319 318 317 317 316 316 317 318 318 319 321 322 323 323 324 326 326 326 325 325 325 325 325 325 326 325 324 322 319 311 302 292 278 268 262 260 259 258 256 253 251 249 249 247 244 241 239 240 239 237 236 233 230 229 229 228 227 229 231 232 232 233 235 234 233 234 235 234 232 231 229 226 225 222 219
319 318 318 318 318 317 317 317 318 319 319 319 319 320 322 322 322 320 319 319 319 320 321 322 323 324 324 324 324 323 324 324 323 323 324 323 322 321 319 315 308 299 287 275 266 262 259 258 257 256 253 250 249 248 246 244 242 242 241 239 238 236 234 233 232 231 228 227 228 230 230 231 232 234 234 233 233 233 233 231 228 226 224 223 221
315 316 317 317 317 317 317 318 319 320 320 321 322 323 324 324 323 321 319 319 319 320 321 321 321 322 322 323 322 322 322 323 322 322 322 320 320 319 317 315 311 303 294 284 274 267 262 260 258 257 255 252 249 248 246 245 243 242 241 239 238 236 236 236 236 234 232 229 229 230 231 230 231 232 234 234 233 232 233 232 230 226 224 223 222
315 316 317 317 317 317 317 317 318 318 319 319 320 321 322 323 322 321 321 321 321 321 320 320 320 320 320 320 320 320 320 321 321 320 320 318 318 317 316 313 310 306 299 291 282 275 268 263 259 257 256 254 251 248 246 244 243 242 241 239 238 236 234 234 234 235 235 233 230 230 232 232 232 232 233 234 234 233 232 231 231 229 226 224 223
315 317 317 316 315 315 314 314 313 314 314 315 317 319 320 322 323 323 323 323 322 321 320 319 318 318 318 318 318 318 318 319 320 319 319 318 318 316 315 313 309 305 300 294 287 279 274 268 262 258 255 254 253 250 247 245 243 242 241 239 238 237 235 233 232 233 234 234 233 231 231 232 234 233 233 233 234 234 233 231 230 229 227 226 226
310 312 313 314 314 314 313 311 311 310 311 313 315 318 320 322 323 324 324 324 323 321 320 318 317 316 317 317 317 318 318 319 319 318 317 317 318 317 315 312 309 304 300 295 289 282 276 271 266 260 256 253 253 252 250 248 246 243 241 241 240 238 235 233 232 231 232 233 233 232 230 231 233 234 234 233 233 234 234 233 231 230 228 226 227
305 307 309 311 312 313 314 313 312 311 311 312 314 316 319 321 322 323 324 323 322 320 318 317 316 316 316 317 317 318 319 319 319 319 318 316 315 315 314 311 308 304 300 295 290 284 278 272 268 263 259 255 252 252 252 250 248 246 242 241 241 240 237 233 232 232 231 232 232 232 230 229 230 232 234 234 233 233 233 234 233 231 230 227 227
305 307 309 311 313 314 315 315 313 312 311 312 313 315 318 320 321 322 321 321 320 319 318 317 317 317 317 318 318 319 320 320 321 321 320 317 314 313 312 309 307 304 299 293 288 283 278 272 267 264 260 257 254 252 251 251 250 248 244 241 240 241 239 236 234 234 233 232 233 233 231 229 228 229 232 233 233 233 232 233 233 234 232 230 228
306 308 310 312 313 314 315 315 313 311 310 311 312 314 317 318 319 319 319 320 319 319 318 318 318 318 318 319 319 320 321 321 321 321 320 318 315 312 310 307 305 303 299 293 287 282 277 271 267 264 261 258 255 253 251 250 249 249 246 242 240 240 240 238 238 237 235 232 233 234 234 231 229 228 230 232 233 233 233 232 232 233 234 233 231
306 308 310 311 312 313 314 313 311 310 309 310 312 313 315 316 317 317 318 320 320 320 319 319 319 319 320 320 321 321 321 321 322 321 320 318 316 313 311 307 303 300 297 293 288 283 278 271 265 263 262 259 256 254 251 249 248 247 246 244 241 240 239 239 239 240 237 234 232 232 233 232 231 231 230 231 232 233 234 233 231 231 232 234 233
307 308 309 311 312 312 312 311 311 310 309 310 311 312 314 315 315 316 318 320 321 320 320 319 319 320 321 321 320 320 321 321 321 321 319 318 315 314 313 311 306 300 295 291 286 282 279 274 267 262 260 258 257 255 253 250 248 246 245 244 243 241 240 239 240 240 239 236 233 232 231 231 231 232 231 230 230 232 234 234 232 231 231 232 233
306 307 309 310 311 311 311 311 311 310 309 309 309 310 312 313 314 315 318 320 321 320 318 318 318 320 320 320 320 320 320 321 321 320 318 317 316 316 315 314 310 304 297 290 284 281 279 277 271 264 260 257 255 254 254 252 250 247 244 243 243 242 241 240 240 240 239 238 235 234 232 230 229 230 232 232 229 229 232 234 234 232 231 231 231
304 306 307 309 310 311 311 312 311 310 308 307 308 310 312 312 313 315 318 319 319 317 316 317 318 320 320 320 320 320 320 320 320 319 318 317 317 317 317 315 311 307 299 291 284 281 280 278 274 268 263 260 256 253 252 252 250 248 246 243 242 242 242 241 241 240 239 237 236 235 234 232 230 229 230 232 232 230 231 232 233 233 232 232 231
303 303 305 307 309 310 311 311 310 309 308 308 309 310 310 311 312 314 316 317 317 316 316 317 319 319 320 320 321 320 320 320 320 319 318 318 318 318 318 316 312 308 302 294 286 281 279 278 277 272 266 263 260 255 252 250 250 249 247 245 243 242 242 241 240 240 239 237 235 235 234 233 232 230 229 230 232 232 232 232 232 233 232 232 232
301 302 304 307 309 310 310 310 309 310 310 310 309 309 309 310 311 313 315 316 317 317 318 319 319 319 320 321 321 320 320 320 319 319 318 319 319 319 318 315 311 308 305 299 292 285 280 278 278 276 270 265 263 260 255 251 249 248 247 246 243 242 241 240 239 239 238 237 235 234 233 233 232 231 230 229 230 231 232 232 232 232 233 232 232
301 302 304 307 309 309 309 309 310 311 310 309 308 308 309 310 311 313 316 317 317 317 318 319 319 320 321 321 320 319 319 319 318 319 319 320 320 319 317 314 310 307 304 301 297 292 287 281 278 278 275 270 266 263 260 255 251 248 247 246 244 242 241 240 239 238 237 237 235 234 233 233 232 231 230 230 230 231 232 233 232 232 232 232 232
300 302 304 307 308 308 309 310 311 310 309 308 307 308 309 310 312 315 317 317 317 317 318 319 321 322 321 320 319 319 319 318 318 319 319 320 320 319 317 313 310 308 305 302 296 292 290 286 281 279 278 276 271 266 263 260 254 250 247 246 245 243 241 240 239 238 237 237 236 235 234 232 231 230 230 230 231 231 232 233 233 232 231 231 232
300 303 306 307 307 307 308 309 310 309 308 307 308 309 310 311 313 316 317 317 317 317 319 321 322 323 321 320 319 319 319 319 319 319 319 320 320 318 316 313 309 307 306 303 296 290 288 287 285 281 278 276 274 270 266 264 260 254 249 246 245 243 241 240 239 238 236 236 236 235 233 232 230 229 229 229 229 230 230 231 233 232 231 231 231
300 304 306 306 306 306 307 308 307 308 308 309 310 310 312 313 315 316 317 316 317 318 320 321 322 322 320 319 319 319 320 319 319 319 319 319 319 318 315 312 308 306 305 304 298 291 287 285 284 283 280 275 273 271 268 266 264 259 253 248 245 243 242 240 239 239 237 235 235 234 232 230 230 229 228 229 229 228 228 230 232 233 232 232 231
299 302 305 306 305 305 306 307 308 309 310 310 310 311 312 314 314 315 316 316 317 318 319 319 320 320 319 318 319 319 319 319 318 318 318 319 319 317 314 310 307 305 304 304 300 295 291 287 284 282 280 276 272 270 268 266 265 263 259 253 247 243 241 240 239 239 237 235 234 233 232 230 229 229 228 229 229 227 227 228 230 232 232 232 232
300 302 304 304 304 304 306 308 310 312 312 311 311 311 312 312 312 314 315 316 316 317 317 318 319 319 319 318 318 318 318 317 317 317 317 318 318 316 312 308 306 304 303 303 300 297 294 288 284 282 280 279 277 273 270 266 264 262 262 259 252 245 241 240 239 238 238 236 234 233 232 230 229 229 228 228 228 227 226 227 229 230 232 233 233
300 301 302 303 303 304 307 310 311 311 311 310 310 309 309 310 311 313 314 314 315 315 317 318 318 318 318 318 318 318 317 316 315 315 316 317 316 314 310 306 304 304 303 302 300 298 295 290 284 282 281 282 282 279 275 271 267 263 260 259 257 251 243 239 239 238 237 237 235 232 232 231 230 228 228 227 227 227 226 226 227 229 231 232 233
298 300 301 302 303 305 308 310 310 309 308 307 307 307 308 309 310 311 312 313 313 315 316 317 317 318 318 318 317 317 315 314 314 314 314 315 314 312 309 306 305 305 303 302 301 299 296 293 289 286 283 283 283 281 279 275 272 268 262 258 257 255 249 241 238 238 238 237 235 233 231 231 230 229 228 227 227 227 226 225 226 228 231 232 233
296 298 300 302 304 307 309 309 308 308 306 305 305 307 308 309 309 310 310 311 312 313 314 315 316 316 317 316 316 315 313 312 311 311 312 313 313 311 308 306 305 305 304 303 302 300 298 296 294 291 288 286 284 283 281 279 274 271 267 261 257 255 252 246 239 237 238 237 236 233 231 230 230 230 228 227 227 227 225 224 225 227 229 230 232
295 297 299 302 306 307 307 307 308 307 305 306 308 309 309 308 308 309 309 309 310 311 311 312 313 315 316 315 315 313 311 309 309 308 309 310 311 310 308 305 305 305 304 302 301 300 299 297 296 294 292 290 288 286 285 283 278 273 268 263 259 255 252 248 242 238 237 237 236 234 232 230 230 229 229 228 227 227 226 224 224 225 226 228 230
295 297 300 304 306 306 307 307 307 306 306 308 310 309 308 307 306 307 307 307 308 309 309 309 311 314 315 315 313 311 309 307 306 306 307 310 311 310 307 304 304 304 303 301 300 300 299 298 297 295 294 292 290 289 288 287 283 277 270 263 258 255 252 249 244 239 237 237 236 235 233 231 230 229 228 228 227 227 226 224 223 224 225 226 227
295 298 302 305 306 305 306 307 307 307 310 313 315 315 315 314 313 312 309 307 307 307 307 307 310 312 314 314 312 309 307 305 304 305 307 310 311 308 306 304 303 303 302 301 300 300 299 299 298 296 295 295 294 293 292 290 287 283 276 266 256 252 250 248 245 240 237 236 236 235 233 232 230 229 228 228 227 227 226 225 224 224 225 226 227
295 299 303 304 304 304 305 306 308 311 316 319 321 321 320 319 319 318 313 308 305 305 304 305 308 310 312 312 309 307 307 305 303 303 306 309 309 307 305 303 302 302 302 301 299 298 299 299 298 297 296 297 298 297 296 294 291 288 282 271 259 251 247 245 244 240 237 236 235 234 233 232 231 229 228 228 227 227 226 225 224 224 225 226 227
296 299 301 301 302 303 305 307 309 314 318 320 321 319 317 318 320 321 317 310 304 302 302 304 306 309 311 311 308 306 306 304 302 302 304 307 308 307 305 303 302 302 302 300 298 297 298 299 299 298 298 299 301 300 299 296 294 291 286 276 263 254 246 241 241 240 237 234 233 233 232 232 231 229 228 227 226 226 226 225 224 224 225 225 226
297 299 299 300 301 303 305 305 309 316 319 321 321 318 317 321 325 325 322 315 307 301 300 302 305 309 312 310 306 304 304 303 302 301 303 305 305 305 304 303 302 301 301 299 297 296 296 298 298 298 299 300 302 302 301 298 295 293 290 280 267 257 248 240 236 237 237 234 231 231 231 231 231 229 227 226 225 225 225 224 223 223 224 224 225
298 298 298 299 301 303 302 302 309 316 319 320 320 317 316 321 326 325 321 315 308 301 299 301 306 311 312 309 306 303 302 301 301 301 302 303 304 304 303 302 301 300 300 299 297 296 296 297 299 299 300 302 303 303 302 300 297 296 293 285 272 260 250 241 234 233 235 234 230 228 229 229 230 229 227 226 225 224 224 223 222 222 223 223 223
296 296 297 299 300 301 300 300 306 314 317 320 321 319 316 317 320 321 316 309 305 301 298 300 306 312 314 312 308 302 299 298 299 300 301 301 302 302 302 302 301 300 300 298 297 297 297 298 300 300 301 302 303 303 303 302 300 299 296 288 275 262 252 243 235 230 232 234 231 227 226 228 229 229 226 225 225 224 223 222 221 221 222 223 222
294 295 297 298 299 300 299 300 304 311 318 322 322 320 318 316 319 321 315 305 301 300 297 296 304 313 317 315 310 303 298 297 297 298 299 300 300 301 301 301 301 300 299 298 297 298 299 300 301 301 301 303 304 304 305 305 304 302 300 290 273 262 254 246 237 230 229 232 231 227 224 226 228 228 225 224 224 224 222 221 221 221 222 223 222
292 295 297 298 300 301 300 301 305 311 318 323 323 322 320 319 321 322 316 303 296 300 300 297 299 308 315 314 309 304 299 296 296 297 298 298 298 299 300 300 300 299 298 298 299 301 302 302 303 303 303 305 305 305 306 307 306 305 302 294 272 258 254 247 240 232 229 230 231 227 223 223 227 227 224 223 223 223 222 221 220 220 221 222 221
292 296 298 300 301 303 304 305 307 312 318 322 323 322 320 320 321 321 316 302 294 299 303 299 295 301 310 312 309 305 300 295 295 296 296 296 297 298 299 299 298 298 298 299 301 303 303 304 304 304 305 306 306 307 308 308 307 306 304 297 277 258 251 247 242 235 230 229 229 227 222 221 225 226 223 222 222 222 222 221 220 220 221 221 221
293 296 299 302 304 306 308 308 308 312 317 319 320 320 319 319 319 319 315 305 298 300 302 299 295 299 307 308 305 303 298 294 294 295 295 295 295 297 298 297 297 297 298 300 302 302 303 304 304 304 306 307 308 310 311 310 310 309 306 300 283 261 250 246 242 236 231 229 229 227 222 219 222 225 223 221 221 221 220 220 219 219 220 221 221
293 296 300 303 305 307 308 308 309 311 314 316 317 317 317 317 316 316 314 309 305 304 302 299 297 299 303 304 301 300 296 293 293 294 293 294 295 296 297 296 296 296 297 299 300 301 302 303 304 306 308 310 312 313 314 314 312 310 308 303 290 268 252 246 242 236 231 229 228 227 223 218 220 224 222 220 220 219 219 219 218 218 220 220 220
294 297 300 303 304 305 307 308 308 310 312 312 313 314 315 315 315 315 313 311 310 308 304 301 300 301 302 301 299 297 293 291 292 292 292 292 294 296 297 295 294 295 295 297 299 299 300 302 305 308 310 312 314 316 317 316 312 308 306 304 297 281 260 248 243 237 230 226 226 226 223 219 219 222 221 220 219 218 218 218 218 218 219 220 220
Height
5914 5913 5913 5913 5912 5912 5911 5911 5910 5910 5910 5909 5909 5908 5907 5907 5906 5905 5904 5903 5903 5902 5900 5899 5898 5897 5897 5896 5896 5895 5895 5896 5896 5896 5896 5896 5895 5895 5895 5895 5895 5895 5895 5895 5895 5896 5898 5899 5899 5900 5900 5901 5901 5902 5903 5904 5904 5905 5905 5906 5906 5906 5906 5906 5907 5907 5907 5907 5906 5906 5906 5906 5906 5906 5906 5906 5906 5906 5906 5905 5905 5905 5905 5905 5906
5914 5914 5913 5913 5913 5912 5912 5911 5911 5910 5910 5910 5909 5908 5908 5907 5906 5905 5904 5903 5903 5902 5900 5898 5897 5896 5895 5895 5895 5894 5894 5893 5893 5894 5894 5894 5893 5893 5893 5893 5893 5893 5893 5893 5893 5894 5895 5896 5896 5897 5898 5899 5900 5900 5901 5902 5903 5904 5904 5905 5905 5905 5905 5905 5906 5906 5907 5907 5906 5906 5906 5906 5906 5906 5906 5906 5906 5906 5905 5905 5905 5905 5905 5905 5905
5915 5914 5914 5913 5913 5913 5913 5912 5911 5911 5910 5910 5909 5909 5908 5907 5906 5905 5904 5903 5903 5902 5900 5898 5897 5896 5895 5894 5893 5893 5892 5892 5891 5891 5891 5891 5891 5891 5891 5891 5891 5891 5891 5891 5892 5892 5892 5893 5893 5894 5894 5896 5897 5898 5899 5900 5901 5902 5902 5903 5904 5904 5905 5904 5905 5905 5906 5906 5906 5906 5906 5906 5906 5905 5905 5905 5905 5905 5905 5905 5905 5904 5904 5904 5904
5915 5915 5914 5914 5914 5913 5913 5912 5912 5911 5911 5910 5909 5909 5908 5907 5905 5904 5903 5903 5903 5902 5900 5899 5897 5895 5894 5893 5892 5892 5891 5891 5890 5890 5889 5889 5888 5889 5889 5889 5889 5889 5889 5889 5890 5890 5890 5891 5891 5892 5893 5895 5896 5897 5897 5898 5899 5900 5901 5901 5902 5903 5904 5904 5904 5904 5905 5905 5906 5906 5905 5905 5905 5905 5905 5905 5905 5905 5905 5905 5905 5904 5904 5904 5904
5915 5915 5915 5914 5914 5914 5913 5912 5912 5911 5911 5910 5909 5908 5907 5906 5905 5904 5903 5903 5902 5901 5900 5899 5897 5895 5893 5892 5892 5891 5890 5889 5889 5888 5887 5887 5887 5886 5886 5886 5887 5887 5887 5887 5888 5888 5889 5889 5889 5890 5891 5893 5895 5895 5896 5896 5897 5898 5899 5899 5900 5901 5902 5902 5903 5903 5904 5904 5905 5905 5905 5905 5905 5905 5905 5904 5904 5904 5904 5905 5904 5904 5904 5904 5904
5915 5915 5914 5914 5914 5913 5913 5912 5911 5911 5910 5909 5909 5908 5907 5906 5904 5903 5902 5902 5901 5900 5899 5898 5897 5895 5893 5891 5890 5890 5889 5888 5887 5886 5886 5885 5885 5884 5884 5884 5884 5884 5885 5885 5885 5886 5887 5887 5887 5888 5888 5890 5891 5892 5893 5894 5894 5895 5897 5898 5899 5899 5900 5901 5901 5902 5902 5903 5904 5904 5905 5905 5905 5905 5905 5904 5904 5904 5904 5904 5904 5904 5904 5904 5904
5915 5915 5914 5914 5914 5913 5912 5911 5911 5910 5910 5909 5908 5907 5906 5905 5904 5903 5902 5901 5900 5899 5898 5897 5896 5895 5893 5891 5889 5888 5887 5886 5885 5885 5884 5883 5883 5882 5882 5881 5881 5882 5882 5883 5883 5884 5885 5885 5885 5886 5886 5887 5888 5889 5891 5892 5893 5893 5895 5896 5897 5898 5899 5899 5900 5901 5901 5902 5902 5903 5904 5904 5905 5905 5905 5904 5904 5904 5904 5904 5904 5904 5904 5904 5904
5915 5914 5913 5913 5913 5912 5911 5910 5910 5909 5909 5908 5907 5906 5905 5904 5903 5902 5901 5900 5899 5898 5897 5896 5895 5894 5893 5891 5889 5887 5886 5885 5884 5883 5882 5881 5881 5880 5880 5880 5879 5879 5880 5880 5880 5881 5882 5883 5883 5884 5883 5884 5885 5886 5888 5890 5891 5891 5893 5894 5895 5896 5897 5898 5898 5899 5900 5900 5901 5902 5903 5903 5904 5904 5904 5904 5904 5904 5904 5904 5904 5904 5904 5904 5904
5914 5913 5912 5912 5911 5911 5910 5909 5908 5908 5907 5906 5905 5904 5903 5902 5902 5901 5900 5899 5898 5897 5896 5895 5893 5892 5891 5890 5888 5887 5885 5884 5882 5881 5880 5879 5878 5878 5878 5877 5877 5877 5877 5877 5878 5878 5879 5880 5881 5881 5881 5882 5883 5883 5884 5886 5888 5888 5889 5891 5892 5894 5895 5896 5896 5897 5898 5898 5899 5900 5901 5902 5903 5903 5904 5904 5904 5904 5904 5904 5904 5904 5904 5904 5904
5913 5912 5911 5911 5910 5909 5908 5908 5907 5906 5905 5904 5904 5903 5902 5901 5900 5899 5898 5898 5897 5896 5895 5893 5892 5891 5890 5888 5887 5886 5884 5883 5881 5880 5878 5878 5877 5876 5875 5875 5875 5874 5874 5874 5875 5876 5877 5878 5878 5879 5879 5879 5880 5881 5882 5883 5884 5885 5886 5887 5889 5890 5892 5893 5894 5895 5895 5896 5897 5898 5899 5900 5901 5902 5903 5903 5904 5904 5904 5904 5904 5904 5904 5904 5904
5912 5911 5910 5909 5908 5907 5907 5906 5905 5904 5904 5903 5903 5902 5901 5900 5899 5898 5897 5896 5895 5894 5893 5892 5891 5889 5888 5887 5886 5884 5883 5882 5880 5878 5877 5876 5875 5874 5873 5873 5872 5872 5871 5871 5872 5872 5873 5874 5875 5876 5876 5876 5877 5878 5879 5879 5881 5882 5883 5885 5886 5887 5888 5890 5891 5892 5893 5894 5895 5896 5897 5897 5898 5899 5901 5902 5902 5903 5903 5903 5903 5904 5904 5904 5904
5911 5910 5909 5908 5907 5907 5906 5905 5904 5904 5903 5902 5902 5901 5900 5899 5898 5896 5895 5894 5894 5893 5891 5890 5889 5888 5886 5885 5884 5882 5881 5880 5878 5877 5875 5873 5873 5872 5871 5871 5870 5870 5869 5869 5869 5869 5870 5871 5872 5872 5873 5873 5873 5875 5875 5876 5877 5878 5880 5881 5882 5883 5885 5887 5888 5889 5891 5892 5893 5894 5895 5895 5896 5897 5898 5899 5900 5901 5902 5902 5903 5903 5903 5903 5903
5911 5910 5909 5908 5907 5906 5905 5904 5903 5903 5902 5901 5900 5899 5898 5897 5896 5895 5894 5893 5892 5891 5890 5888 5887 5885 5884 5883 5882 5880 5879 5877 5876 5875 5873 5871 5870 5869 5869 5869 5868 5867 5867 5867 5867 5867 5867 5867 5868 5869 5870 5870 5870 5870 5871 5872 5873 5874 5875 5876 5878 5879 5880 5882 5884 5885 5887 5888 5890 5891 5892 5893 5894 5894 5895 5897 5898 5899 5900 5901 5901 5902 5902 5902 5903
5910 5909 5908 5907 5906 5905 5904 5904 5903 5902 5901 5900 5899 5898 5897 5896 5895 5893 5892 5891 5890 5889 5888 5886 5885 5883 5882 5880 5879 5878 5877 5875 5873 5872 5871 5869 5868 5867 5866 5866 5865 5865 5864 5864 5864 5864 5864 5864 5864 5865 5866 5866 5867 5867 5867 5867 5868 5870 5872 5873 5875 5876 5877 5878 5879 5880 5882 5884 5886 5888 5889 5891 5892 5892 5893 5894 5895 5897 5898 5898 5899 5900 5901 5901 5902
5909 5908 5907 5906 5905 5904 5904 5903 5902 5901 5900 5899 5897 5896 5895 5894 5892 5891 5890 5889 5888 5887 5885 5884 5882 5881 5879 5878 5876 5875 5874 5873 5871 5870 5868 5867 5866 5864 5863 5863 5862 5862 5861 5861 5860 5860 5861 5861 5860 5860 5861 5862 5863 5864 5864 5865 5866 5867 5869 5870 5872 5873 5875 5876 5876 5877 5879 5880 5882 5884 5885 5887 5889 5890 5891 5892 5893 5894 5895 5896 5897 5898 5899 5900 5901
5908 5907 5906 5905 5904 5903 5902 5901 5900 5899 5898 5896 5895 5894 5892 5891 5890 5889 5888 5887 5886 5884 5883 5881 5880 5879 5877 5876 5874 5872 5871 5870 5868 5867 5866 5865 5864 5862 5861 5860 5859 5858 5858 5858 5857 5857 5857 5857 5857 5857 5857 5857 5858 5859 5860 5861 5863 5864 5865 5867 5868 5869 5871 5874 5875 5876 5877 5878 5879 5880 5882 5884 5886 5887 5889 5889 5890 5892 5893 5894 5895 5896 5896 5897 5899
5907 5906 5905 5903 5902 5901 5900 5899 5898 5897 5895 5894 5893 5892 5890 5889 5888 5887 5886 5884 5883 5882 5880 5879 5878 5876 5875 5874 5872 5870 5868 5867 5865 5864 5863 5862 5861 5860 5859 5858 5856 5855 5855 5854 5854 5853 5853 5853 5853 5853 5852 5853 5853 5854 5855 5856 5858 5859 5860 5862 5863 5864 5866 5868 5871 5872 5874 5875 5876 5877 5879 5881 5883 5885 5886 5887 5888 5889 5890 5892 5893 5894 5894 5895 5896
5905 5904 5903 5902 5901 5899 5898 5897 5896 5895 5893 5892 5891 5890 5888 5887 5886 5885 5883 5882 5881 5879 5878 5877 5875 5874 5873 5871 5870 5869 5866 5865 5863 5861 5859 5858 5857 5856 5856 5855 5854 5853 5852 5851 5850 5849 5849 5849 5849 5849 5848 5848 5849 5850 5851 5852 5853 5854 5856 5857 5858 5859 5861 5863 5865 5867 5869 5872 5873 5873 5875 5877 5880 5882 5884 5885 5886 5887 5888 5889 5890 5891 5892 5893 5894
5904 5903 5902 5900 5899 5898 5896 5895 5894 5893 5891 5890 5889 5887 5886 5885 5883 5882 5881 5880 5878 5877 5875 5874 5873 5871 5870 5868 5867 5866 5864 5862 5861 5859 5856 5854 5853 5852 5851 5851 5850 5849 5848 5847 5846 5845 5845 5845 5844 5844 5844 5844 5844 5845 5846 5847 5848 5850 5851 5852 5853 5854 5856 5858 5859 5861 5864 5867 5869 5870 5871 5872 5875 5878 5881 5882 5883 5885 5885 5886 5887 5888 5889 5891 5892
5902 5901 5900 5898 5897 5895 5893 5892 5891 5890 5888 5887 5886 5885 5883 5882 5881 5880 5878 5877 5876 5874 5873 5871 5870 5868 5867 5865 5863 5862 5861 5859 5858 5856 5854 5852 5849 5848 5847 5846 5845 5845 5844 5843 5842 5841 5840 5840 5840 5840 5839 5839 5839 5840 5841 5842 5844 5845 5847 5848 5848 5849 5851 5853 5855 5856 5858 5861 5863 5865 5866 5867 5870 5873 5876 5878 5880 5881 5883 5884 5885 5886 5887 5888 5889
5899 5898 5897 5895 5893 5892 5890 5889 5887 5886 5885 5884 5883 5882 5881 5879 5878 5877 5876 5874 5873 5871 5870 5868 5866 5865 5863 5861 5860 5858 5857 5855 5854 5853 5852 5850 5847 5844 5843 5841 5840 5839 5839 5838 5837 5836 5835 5835 5835 5835 5834 5834 5834 5835 5836 5837 5838 5840 5842 5843 5844 5845 5846 5848 5850 5851 5853 5856 5859 5861 5862 5863 5865 5867 5870 5873 5876 5878 5879 5881 5882 5883 5884 5885 5887
5896 5895 5893 5892 5890 5889 5887 5886 5885 5884 5883 5881 5880 5879 5878 5877 5875 5874 5873 5871 5870 5868 5866 5865 5863 5861 5859 5858 5856 5854 5853 5851 5850 5848 5847 5846 5844 5841 5839 5837 5834 5833 5832 5832 5831 5830 5830 5830 5830 5829 5829 5829 5829 5830 5831 5832 5833 5834 5836 5838 5840 5841 5842 5844 5845 5847 5849 5851 5854 5857 5859 5860 5861 5863 5865 5868 5871 5874 5875 5877 5878 5880 5881 5882 5884
5893 5892 5891 5889 5888 5886 5885 5883 5882 5881 5880 5878 5877 5876 5875 5874 5872 5871 5869 5868 5866 5864 5863 5861 5859 5857 5855 5854 5852 5850 5848 5847 5845 5844 5843 5841 5840 5838 5835 5833 5830 5828 5826 5825 5824 5823 5824 5824 5824 5824 5824 5824 5824 5824 5825 5826 5827 5829 5830 5832 5834 5836 5837 5839 5840 5843 5845 5846 5849 5852 5854 5857 5858 5860 5862 5864 5867 5870 5872 5874 5875 5876 5877 5879 5881
5890 5889 5888 5887 5885 5884 5882 5881 5879 5878 5877 5875 5874 5873 5872 5870 5869 5868 5866 5865 5863 5861 5859 5857 5855 5853 5852 5850 5848 5846 5844 5843 5841 5839 5838 5836 5835 5833 5831 5828 5826 5823 5821 5820 5818 5816 5816 5817 5818 5819 5819 5819 5818 5819 5819 5821 5822 5823 5824 5826 5828 5830 5832 5834 5835 5838 5840 5842 5844 5846 5848 5851 5853 5856 5858 5859 5862 5865 5867 5870 5871 5872 5873 5875 5877
5887 5886 5885 5884 5882 5881 5879 5878 5876 5875 5874 5872 5871 5870 5869 5867 5866 5865 5863 5861 5859 5857 5855 5853 5851 5850 5848 5846 5845 5843 5841 5839 5837 5835 5833 5831 5830 5828 5826 5824 5821 5818 5816 5815 5813 5811 5810 5810 5812 5813 5813 5813 5814 5813 5813 5814 5816 5817 5818 5820 5822 5824 5826 5828 5829 5832 5834 5837 5840 5842 5843 5845 5847 5850 5853 5855 5857 5859 5862 5865 5867 5869 5870 5871 5873
5884 5883 5882 5881 5879 5878 5876 5875 5874 5872 5871 5870 5868 5867 5866 5865 5863 5861 5860 5858 5856 5854 5852 5850 5848 5846 5844 5842 5840 5838 5836 5834 5832 5830 5828 5826 5824 5822 5821 5819 5817 5815 5812 5809 5808 5807 5805 5805 5805 5806 5807 5807 5808 5808 5808 5809 5810 5810 5812 5814 5816 5818 5820 5822 5823 5825 5828 5830 5833 5836 5838 5840 5841 5844 5848 5851 5854 5856 5857 5860 5863 5865 5866 5868 5869
5881 5880 5879 5878 5877 5875 5874 5872 5871 5870 5868 5867 5866 5865 5863 5862 5860 5858 5856 5855 5852 5850 5848 5846 5844 5842 5839 5838 5836 5834 5832 5830 5827 5825 5823 5820 5818 5816 5815 5814 5813 5811 5808 5805 5803 5803 5802 5800 5799 5800 5801 5801 5801 5802 5803 5803 5804 5804 5806 5807 5810 5811 5813 5815 5817 5819 5821 5824 5826 5829 5832 5835 5836 5839 5842 5846 5851 5853 5853 5855 5858 5860 5862 5864 5865
5878 5877 5876 5875 5874 5872 5871 5870 5869 5867 5866 5864 5863 5862 5860 5859 5857 5855 5853 5851 5848 5846 5844 5842 5840 5838 5836 5834 5832 5829 5827 5825 5822 5820 5818 5815 5813 5811 5809 5809 5808 5807 5805 5801 5798 5797 5797 5796 5794 5793 5794 5795 5795 5795 5796 5797 5798 5799 5800 5801 5803 5805 5806 5808 5811 5813 5815 5817 5820 5822 5825 5828 5831 5834 5837 5840 5844 5848 5849 5850 5853 5855 5857 5859 5861
5875 5874 5873 5872 5871 5870 5868 5867 5866 5864 5863 5862 5860 5859 5857 5855 5853 5851 5849 5846 5844 5842 5841 5839 5837 5834 5832 5830 5827 5825 5823 5820 5817 5815 5813 5811 5808 5806 5805 5803 5803 5803 5802 5799 5796 5792 5791 5790 5790 5788 5788 5789 5789 5789 5789 5791 5792 5793 5794 5795 5797 5799 5800 5801 5804 5806 5809 5811 5814 5816 5819 5822 5825 5828 5831 5834 5838 5841 5843 5846 5848 5850 5852 5855 5857
5873 5871 5870 5869 5868 5867 5865 5864 5863 5862 5860 5859 5857 5856 5854 5851 5849 5847 5845 5843 5840 5838 5837 5835 5833 5830 5828 5826 5823 5821 5819 5816 5813 5811 5809 5806 5804 5802 5800 5799 5798 5797 5797 5797 5794 5790 5787 5785 5784 5784 5783 5782 5783 5783 5783 5783 5785 5787 5788 5789 5790 5792 5793 5795 5797 5800 5802 5804 5807 5810 5812 5816 5818 5821 5824 5827 5831 5834 5837 5840 5843 5845 5847 5850 5852
5870 5869 5867 5866 5865 5863 5862 5861 5860 5859 5857 5856 5854 5852 5850 5848 5845 5843 5841 5839 5837 5834 5833 5831 5829 5826 5824 5822 5819 5817 5815 5812 5809 5806 5804 5802 5800 5797 5796 5794 5793 5792 5792 5792 5791 5788 5785 5782 5780 5779 5779 5778 5777 5777 5778 5777 5778 5780 5782 5783 5784 5785 5787 5788 5790 5793 5795 5798 5800 5803 5806 5809 5811 5814 5817 5820 5824 5827 5831 5834 5837 5840 5842 5844 5847
5867 5866 5864 5863 5861 5860 5859 5858 5857 5855 5854 5852 5850 5848 5845 5843 5841 5840 5838 5836 5833 5831 5829 5826 5824 5822 5820 5817 5815 5813 5811 5809 5806 5803 5800 5798 5796 5793 5791 5789 5788 5787 5786 5786 5786 5785 5782 5779 5777 5775 5774 5774 5773 5772 5772 5773 5772 5772 5774 5776 5778 5779 5780 5782 5783 5785 5788 5791 5793 5796 5799 5802 5805 5808 5811 5814 5817 5820 5824 5828 5831 5834 5837 5839 5842
5864 5863 5861 5860 5858 5857 5856 5854 5853 5852 5850 5849 5846 5844 5842 5840 5838 5836 5834 5832 5829 5827 5824 5822 5820 5818 5815 5813 5811 5809 5807 5804 5802 5799 5797 5794 5792 5789 5787 5786 5784 5782 5781 5781 5780 5780 5779 5775 5773 5771 5769 5769 5768 5767 5767 5768 5767 5766 5767 5768 5770 5772 5774 5776 5777 5779 5781 5783 5786 5789 5792 5795 5798 5801 5804 5807 5810 5813 5817 5821 5824 5828 5831 5834 5836
5861 5859 5858 5856 5855 5853 5852 5851 5849 5848 5847 5845 5842 5840 5839 5837 5835 5832 5830 5828 5825 5823 5820 5818 5816 5814 5811 5809 5806 5804 5802 5800 5797 5795 5793 5790 5788 5785 5783 5782 5780 5778 5777 5776 5775 5775 5775 5772 5769 5767 5765 5763 5763 5762 5762 5762 5762 5761 5761 5761 5762 5765 5768 5769 5771 5773 5774 5776 5778 5781 5784 5788 5791 5794 5798 5801 5804 5807 5810 5814 5818 5821 5825 5828 5831
5857 5856 5854 5852 5851 5850 5848 5847 5846 5845 5843 5841 5839 5837 5836 5834 5831 5829 5826 5824 5821 5819 5816 5814 5811 5809 5807 5805 5803 5800 5798 5795 5793 5791 5789 5787 5784 5782 5779 5778 5776 5775 5772 5771 5770 5769 5769 5768 5765 5762 5760 5759 5758 5757 5756 5757 5757 5756 5756 5755 5755 5757 5761 5763 5765 5766 5768 5769 5771 5774 5777 5780 5784 5787 5791 5794 5798 5801 5804 5808 5811 5815 5819 5822 5825
5854 5852 5850 5849 5847 5846 5845 5844 5843 5841 5840 5838 5836 5834 5832 5830 5827 5825 5822 5820 5817 5814 5812 5810 5807 5805 5803 5801 5798 5796 5794 5791 5789 5787 5785 5783 5780 5778 5775 5773 5772 5771 5768 5766 5765 5764 5763 5763 5761 5758 5756 5755 5753 5752 5751 5752 5751 5750 5750 5750 5749 5750 5752 5755 5758 5760 5761 5762 5764 5767 5770 5773 5777 5780 5784 5788 5791 5795 5798 5801 5805 5809 5812 5816 5819
5850 5849 5847 5845 5844 5843 5842 5841 5840 5838 5836 5835 5833 5831 5828 5826 5823 5821 5818 5816 5813 5810 5807 5805 5803 5801 5799 5796 5794 5792 5790 5788 5785 5783 5781 5779 5776 5774 5771 5769 5767 5766 5764 5761 5760 5759 5757 5756 5756 5754 5752 5750 5749 5746 5745 5745 5746 5745 5744 5744 5743 5743 5745 5748 5751 5753 5755 5756 5757 5760 5763 5766 5769 5773 5777 5781 5785 5788 5792 5795 5798 5802 5806 5810 5814
5846 5845 5843 5842 5841 5839 5839 5838 5837 5835 5833 5831 5829 5827 5824 5821 5819 5816 5813 5811 5808 5805 5803 5800 5798 5797 5794 5792 5789 5787 5785 5783 5781 5779 5777 5774 5772 5770 5767 5765 5763 5761 5759 5757 5755 5754 5752 5751 5750 5749 5747 5745 5743 5741 5739 5739 5739 5738 5738 5738 5737 5736 5737 5740 5743 5746 5748 5749 5751 5753 5756 5759 5762 5766 5770 5774 5778 5782 5785 5789 5792 5795 5799 5803 5807
5842 5841 5839 5839 5838 5837 5836 5835 5834 5832 5829 5827 5824 5821 5819 5816 5814 5811 5808 5805 5803 5800 5798 5796 5794 5792 5789 5787 5785 5783 5781 5779 5777 5775 5773 5770 5767 5765 5763 5760 5758 5756 5754 5753 5751 5749 5748 5746 5744 5743 5742 5740 5738 5736 5734 5732 5732 5731 5730 5731 5731 5730 5730 5732 5735 5738 5740 5742 5744 5746 5749 5752 5755 5759 5763 5767 5771 5775 5779 5782 5786 5789 5793 5797 5801
5838 5837 5837 5836 5835 5834 5833 5831 5829 5827 5825 5822 5819 5816 5813 5811 5809 5806 5803 5800 5797 5795 5793 5791 5789 5787 5785 5783 5781 5779 5777 5775 5773 5770 5768 5765 5763 5760 5758 5756 5754 5752 5749 5748 5746 5744 5743 5741 5739 5737 5736 5734 5732 5730 5728 5726 5725 5724 5722 5723 5724 5723 5722 5724 5727 5729 5732 5735 5737 5739 5742 5744 5748 5751 5755 5760 5764 5769 5773 5777 5780 5784 5788 5792 5795
5835 5834 5833 5833 5832 5830 5828 5826 5824 5822 5820 5817 5814 5812 5809 5806 5804 5801 5798 5794 5792 5790 5788 5786 5784 5782 5780 5779 5777 5775 5773 5770 5768 5765 5763 5760 5758 5756 5753 5751 5749 5747 5745 5743 5741 5739 5738 5737 5735 5732 5730 5728 5727 5725 5723 5720 5719 5718 5716 5715 5716 5716 5715 5717 5719 5721 5723 5726 5729 5732 5735 5737 5740 5744 5748 5752 5757 5762 5766 5771 5775 5779 5783 5786 5790
5832 5831 5830 5829 5828 5826 5824 5822 5819 5816 5814 5812 5810 5808 5805 5802 5799 5796 5792 5789 5787 5785 5783 5782 5780 5778 5776 5774 5772 5771 5768 5766 5763 5761 5758 5755 5753 5751 5748 5746 5744 5742 5740 5738 5736 5734 5733 5732 5729 5727 5725 5723 5721 5719 5717 5715 5713 5711 5709 5707 5707 5708 5708 5710 5712 5713 5714 5717 5721 5724 5727 5730 5732 5736 5741 5745 5750 5754 5759 5764 5769 5773 5777 5781 5784
5829 5827 5826 5824 5823 5822 5820 5818 5815 5812 5809 5807 5805 5803 5800 5798 5796 5792 5788 5785 5782 5780 5779 5778 5776 5773 5771 5770 5768 5766 5764 5761 5759 5756 5753 5751 5748 5746 5743 5741 5739 5737 5735 5733 5731 5729 5728 5727 5724 5721 5719 5717 5715 5713 5711 5709 5707 5705 5702 5700 5700 5700 5700 5702 5705 5706 5706 5708 5712 5716 5720 5723 5725 5729 5734 5739 5744 5748 5752 5758 5763 5767 5771 5775 5778
5825 5823 5822 5820 5818 5817 5816 5814 5812 5809 5805 5803 5801 5799 5796 5794 5792 5789 5785 5782 5779 5777 5775 5774 5772 5770 5768 5766 5763 5761 5759 5756 5754 5751 5748 5745 5743 5740 5738 5736 5734 5732 5729 5727 5725 5724 5722 5721 5719 5716 5713 5711 5709 5707 5704 5702 5700 5698 5696 5694 5692 5692 5693 5694 5696 5698 5698 5699 5704 5709 5714 5716 5718 5722 5728 5733 5737 5742 5746 5751 5756 5761 5765 5769 5772
5820 5818 5817 5815 5814 5812 5811 5810 5808 5805 5803 5800 5797 5795 5792 5790 5788 5785 5782 5779 5776 5774 5772 5770 5769 5766 5764 5762 5759 5756 5754 5751 5749 5746 5743 5740 5738 5735 5733 5731 5729 5726 5724 5722 5720 5718 5717 5715 5713 5711 5708 5706 5704 5701 5698 5695 5693 5691 5690 5688 5685 5684 5685 5686 5688 5691 5691 5691 5696 5702 5707 5710 5711 5715 5721 5727 5731 5735 5739 5745 5750 5754 5759 5763 5767
5815 5814 5812 5811 5809 5808 5806 5805 5803 5800 5798 5796 5793 5790 5788 5785 5782 5780 5778 5774 5772 5770 5768 5766 5764 5762 5760 5758 5756 5752 5749 5746 5744 5741 5738 5735 5733 5730 5727 5725 5723 5721 5719 5716 5714 5713 5711 5709 5708 5706 5703 5700 5698 5695 5692 5688 5686 5683 5682 5681 5679 5676 5677 5678 5680 5683 5684 5685 5688 5694 5700 5704 5704 5707 5715 5721 5724 5728 5733 5738 5743 5748 5752 5757 5760
5810 5809 5808 5806 5805 5803 5801 5799 5797 5794 5792 5790 5787 5785 5782 5780 5777 5775 5772 5770 5768 5766 5764 5762 5759 5757 5756 5754 5752 5748 5745 5742 5739 5736 5733 5731 5728 5725 5723 5720 5718 5716 5714 5711 5709 5707 5705 5703 5702 5700 5697 5695 5692 5689 5686 5682 5680 5677 5674 5673 5672 5670 5670 5671 5673 5675 5677 5678 5680 5686 5694 5698 5697 5700 5709 5715 5717 5722 5727 5732 5737 5741 5746 5750 5754
5806 5805 5803 5802 5800 5798 5796 5794 5791 5788 5786 5783 5782 5779 5776 5774 5771 5769 5767 5765 5763 5761 5759 5756 5754 5752 5751 5749 5747 5744 5740 5737 5734 5731 5728 5726 5723 5720 5718 5716 5714 5712 5709 5706 5704 5702 5700 5698 5696 5694 5691 5689 5686 5683 5680 5676 5673 5670 5667 5666 5665 5663 5663 5664 5665 5668 5670 5671 5673 5679 5687 5692 5691 5694 5702 5707 5710 5715 5720 5725 5730 5735 5740 5744 5748
5801 5800 5799 5797 5794 5792 5790 5788 5785 5783 5779 5777 5775 5774 5771 5768 5766 5764 5762 5760 5758 5756 5753 5751 5749 5747 5745 5743 5741 5739 5735 5732 5729 5726 5723 5721 5718 5715 5713 5711 5709 5707 5704 5701 5699 5697 5695 5693 5690 5688 5686 5683 5681 5678 5674 5669 5665 5662 5659 5658 5658 5657 5656 5656 5658 5661 5663 5665 5668 5672 5679 5685 5686 5688 5695 5700 5703 5708 5714 5719 5724 5729 5733 5738 5742
5796 5796 5794 5792 5789 5787 5785 5782 5780 5778 5775 5772 5770 5768 5766 5763 5761 5758 5756 5754 5752 5750 5748 5746 5744 5741 5739 5737 5735 5733 5730 5726 5723 5720 5718 5716 5713 5710 5708 5706 5705 5702 5700 5697 5695 5693 5690 5688 5685 5683 5680 5677 5675 5672 5668 5663 5659 5655 5652 5650 5650 5650 5650 5649 5649 5652 5656 5659 5662 5665 5671 5678 5680 5682 5688 5693 5696 5702 5709 5713 5718 5723 5727 5732 5736
5792 5791 5789 5787 5785 5782 5780 5778 5775 5773 5771 5768 5765 5763 5761 5758 5756 5753 5751 5748 5746 5744 5742 5740 5738 5734 5732 5730 5728 5726 5723 5720 5718 5715 5713 5711 5708 5705 5704 5702 5700 5698 5696 5693 5691 5689 5687 5684 5681 5678 5675 5672 5669 5666 5663 5659 5655 5650 5647 5644 5643 5643 5643 5642 5642 5644 5649 5653 5654 5657 5663 5670 5674 5676 5682 5686 5691 5697 5703 5707 5712 5717 5722 5726 5730